Weather History for Storm Lake, IA

Change the Weather History Date:

Monday, October 28, 2013

  Actual Average Record
Temperature  
Mean Temperature 40 °F -  
Max Temperature 46 °F 53 °F 75 °F (2001)
Min Temperature 33 °F 35 °F 23 °F (2008)
Degree Days  
Heating Degree Days 26    
Moisture  
Dew Point 33 °F    
Average Humidity 75    
Maximum Humidity 93    
Minimum Humidity 57    
Precipitation  
Precipitation 0.01 in - - ()
Sea Level Pressure  
Sea Level Pressure 30.19 in    
Wind  
Wind Speed 19 mph (ENE)    
Max Wind Speed 25 mph    
Max Gust Speed 32 mph    
Visibility 10 miles    
Events Rain    
Averages and records for this station are not official NWS values.
T = Trace of Precipitation, MM = Missing Value Source: NWS Daily Summary

Daily Weather History Graph

Daily Weather History Graph

Search for Another Location

Airport:

Trip Planner

Search our weather history database for the weather conditions in past years. The results will help you decide how hot, cold, wet, or windy it might be!

Date:

Astronomy

Oct. 28, 2013 Rise Set
Actual Time 7:50 AM CDT 6:18 PM CDT
Civil Twilight 7:20 AM CDT 6:47 PM CDT
Nautical Twilight 6:47 AM CDT 7:20 PM CDT
Astronomical Twilight 6:15 AM CDT 7:53 PM CDT
Moon 1:36 AM CDT (10/28) 3:08 PM CDT (10/28)
Length of Visible Light 11h 26m
Length of Day
10h 28m
Waning Crescent, 34% of the Moon is Illuminated
Oct 28
Waning Crescent
Nov 3
New
Nov 9
First Quarter
Nov 17
Full
Nov 25
Last Quarter

Hourly Weather History & Observations

Time (CDT) Temp. Windchill Dew Point Humidity Pressure Visibility Wind Dir Wind Speed Gust Speed Precip Events Conditions
12:15 AM 42.8 °F 35.4 °F 33.8 °F 70% 30.00 in 10.0 mi NNE 15.0 mph - N/A   Clear
12:35 AM 42.8 °F 35.1 °F 33.8 °F 70% 30.01 in 10.0 mi NNE 16.1 mph 23.0 mph N/A   Clear
12:55 AM 41.0 °F 32.5 °F 33.8 °F 76% 30.02 in 10.0 mi NE 17.3 mph - N/A   Clear
1:15 AM 41.0 °F 32.2 °F 33.8 °F 76% 30.02 in 10.0 mi NE 18.4 mph - N/A   Clear
1:55 AM 41.0 °F 32.5 °F 32.0 °F 70% 30.03 in 10.0 mi NE 17.3 mph 24.2 mph N/A   Clear
2:15 AM 41.0 °F 31.9 °F 32.0 °F 70% 30.04 in 10.0 mi NE 19.6 mph - N/A   Clear
2:35 AM 39.2 °F 30.2 °F 32.0 °F 75% 30.05 in 10.0 mi NE 17.3 mph 26.5 mph N/A   Clear
2:55 AM 39.2 °F 29.3 °F 32.0 °F 75% 30.06 in 10.0 mi NE 20.7 mph - N/A   Clear
3:15 AM 39.2 °F 29.3 °F 32.0 °F 75% 30.06 in 10.0 mi NE 20.7 mph 26.5 mph N/A   Clear
3:35 AM 39.2 °F 29.3 °F 32.0 °F 75% 30.07 in 10.0 mi NE 20.7 mph 29.9 mph N/A   Clear
3:55 AM 37.4 °F 27.5 °F 32.0 °F 81% 30.08 in 10.0 mi NE 18.4 mph 26.5 mph N/A   Clear
4:15 AM 37.4 °F 26.9 °F 32.0 °F 81% 30.09 in 10.0 mi NE 20.7 mph 27.6 mph N/A   Clear
4:35 AM 37.4 °F 27.2 °F 32.0 °F 81% 30.09 in 10.0 mi NE 19.6 mph 26.5 mph N/A   Clear
4:55 AM 37.4 °F 26.9 °F 32.0 °F 81% 30.10 in 10.0 mi NE 20.7 mph 27.6 mph N/A   Clear
5:15 AM 37.4 °F 26.9 °F 32.0 °F 81% 30.11 in 10.0 mi NE 20.7 mph 26.5 mph N/A   Clear
5:35 AM 37.4 °F 26.6 °F 32.0 °F 81% 30.11 in 10.0 mi NE 21.9 mph - N/A   Clear
5:55 AM 37.4 °F 26.1 °F 32.0 °F 81% 30.12 in - NE 24.2 mph 32.2 mph N/A   Clear
6:15 AM 37.4 °F 26.1 °F 32.0 °F 81% 30.13 in 10.0 mi NE 24.2 mph 32.2 mph N/A   Clear
6:35 AM 35.6 °F 24.2 °F 32.0 °F 87% 30.15 in 10.0 mi NE 21.9 mph 29.9 mph N/A   Clear
6:55 AM 35.6 °F 24.8 °F 32.0 °F 87% 30.16 in 10.0 mi NE 19.6 mph 27.6 mph N/A   Clear
7:15 AM 35.6 °F 24.5 °F 32.0 °F 87% 30.17 in 10.0 mi NE 20.7 mph 27.6 mph N/A   Clear
7:35 AM 35.6 °F 24.2 °F 32.0 °F 87% 30.17 in 10.0 mi NE 21.9 mph - N/A   Clear
7:55 AM 35.6 °F 24.5 °F 32.0 °F 87% 30.18 in 10.0 mi NE 20.7 mph 28.8 mph N/A   Clear
8:15 AM 33.8 °F 22.2 °F 32.0 °F 93% 30.19 in 10.0 mi NE 20.7 mph - N/A   Clear
8:35 AM 35.6 °F 24.0 °F 32.0 °F 87% 30.20 in 10.0 mi NE 23.0 mph - N/A   Clear
8:55 AM 35.6 °F 24.8 °F 32.0 °F 87% 30.21 in 10.0 mi NE 19.6 mph 27.6 mph N/A   Clear
9:15 AM 33.8 °F 22.8 °F 32.0 °F 93% 30.22 in 10.0 mi NE 18.4 mph 26.5 mph N/A   Clear
9:35 AM 35.6 °F 24.2 °F 32.0 °F 87% 30.22 in 10.0 mi NE 21.9 mph 28.8 mph N/A   Clear
9:55 AM 37.4 °F 27.2 °F 32.0 °F 81% 30.23 in 10.0 mi ENE 19.6 mph 29.9 mph N/A   Partly Cloudy
10:15 AM 37.4 °F 27.5 °F 32.0 °F 81% 30.24 in 10.0 mi ENE 18.4 mph 28.8 mph N/A   Partly Cloudy
10:35 AM 37.4 °F 26.6 °F 32.0 °F 81% 30.26 in 10.0 mi ENE 21.9 mph - N/A   Scattered Clouds
10:55 AM 39.2 °F 29.6 °F 32.0 °F 75% 30.26 in 10.0 mi ENE 19.6 mph 25.3 mph N/A   Mostly Cloudy
11:15 AM 39.2 °F 29.6 °F 32.0 °F 75% 30.26 in 10.0 mi ENE 19.6 mph 27.6 mph N/A   Scattered Clouds
11:35 AM 41.0 °F 31.1 °F 32.0 °F 70% 30.25 in 10.0 mi East 23.0 mph - N/A   Scattered Clouds
11:55 AM 41.0 °F 31.1 °F 32.0 °F 70% 30.24 in 10.0 mi ENE 23.0 mph 29.9 mph N/A   Partly Cloudy
12:15 PM 42.8 °F 33.1 °F 32.0 °F 66% 30.23 in 10.0 mi East 25.3 mph - N/A   Clear
12:35 PM 44.6 °F 35.9 °F 32.0 °F 61% 30.22 in 10.0 mi ENE 23.0 mph 29.9 mph N/A   Clear
12:55 PM 46.4 °F 38.3 °F 32.0 °F 57% 30.22 in 10.0 mi ENE 23.0 mph - N/A   Clear
1:15 PM 46.4 °F 39.0 °F 33.8 °F 62% 30.23 in 10.0 mi ENE 19.6 mph 26.5 mph N/A   Clear
1:35 PM 44.6 °F 37.8 °F 32.0 °F 61% 30.23 in 10.0 mi ENE 15.0 mph 24.2 mph N/A   Partly Cloudy
1:55 PM 44.6 °F 37.8 °F 32.0 °F 61% 30.25 in 10.0 mi ENE 15.0 mph - N/A   Scattered Clouds
2:15 PM 44.6 °F 36.9 °F 33.8 °F 66% 30.22 in 9.0 mi ENE 18.4 mph - N/A   Mostly Cloudy
2:35 PM 42.8 °F 34.5 °F 35.6 °F 76% 30.22 in 5.0 mi ENE 18.4 mph 24.2 mph N/A Rain Light Rain
2:55 PM 44.6 °F 38.1 °F 35.6 °F 71% 30.23 in - ENE 13.8 mph - 0.01 in   Partly Cloudy
3:15 PM 44.6 °F 37.4 °F 35.6 °F 71% 30.24 in 10.0 mi ENE 16.1 mph - N/A   Scattered Clouds
3:35 PM 44.6 °F 36.9 °F 35.6 °F 71% 30.23 in 10.0 mi ENE 18.4 mph - N/A   Clear
3:55 PM 44.6 °F 36.4 °F 35.6 °F 71% 30.23 in 10.0 mi East 20.7 mph 26.5 mph N/A   Clear
4:15 PM 44.6 °F 37.4 °F 35.6 °F 71% 30.23 in 10.0 mi ENE 16.1 mph 26.5 mph N/A   Clear
4:35 PM 42.8 °F 33.8 °F 32.0 °F 66% 30.24 in 10.0 mi ENE 21.9 mph 27.6 mph N/A   Mostly Cloudy
4:55 PM 42.8 °F 34.5 °F 33.8 °F 70% 30.24 in 10.0 mi East 18.4 mph 24.2 mph N/A   Mostly Cloudy
5:15 PM 42.8 °F 34.5 °F 33.8 °F 70% 30.23 in 10.0 mi ENE 18.4 mph 25.3 mph N/A   Light Drizzle
5:35 PM 42.8 °F 34.5 °F 32.0 °F 66% 30.22 in 10.0 mi ENE 18.4 mph 28.8 mph N/A   Scattered Clouds
5:55 PM 42.8 °F 34.5 °F 32.0 °F 66% 30.22 in 10.0 mi East 18.4 mph 26.5 mph N/A   Partly Cloudy
6:15 PM 41.0 °F 32.8 °F 32.0 °F 70% 30.23 in 10.0 mi East 16.1 mph 26.5 mph N/A   Clear
6:35 PM 41.0 °F 33.1 °F 32.0 °F 70% 30.24 in 10.0 mi East 15.0 mph 23.0 mph N/A   Partly Cloudy
6:55 PM 41.0 °F 33.5 °F 32.0 °F 70% 30.25 in 10.0 mi ENE 13.8 mph 19.6 mph N/A   Clear
7:15 PM 41.0 °F 32.8 °F 32.0 °F 70% 30.25 in 10.0 mi ENE 16.1 mph 21.9 mph N/A   Partly Cloudy
7:35 PM 41.0 °F 32.8 °F 32.0 °F 70% 30.25 in 10.0 mi ENE 16.1 mph 21.9 mph N/A   Partly Cloudy
7:55 PM 41.0 °F 31.9 °F 32.0 °F 70% 30.24 in 10.0 mi ENE 19.6 mph - N/A   Partly Cloudy
8:15 PM 41.0 °F 33.1 °F 32.0 °F 70% 30.24 in 10.0 mi ENE 15.0 mph 23.0 mph N/A   Clear
8:35 PM 39.2 °F 30.5 °F 32.0 °F 75% 30.25 in 10.0 mi ENE 16.1 mph - N/A   Clear
8:55 PM 39.2 °F 30.2 °F 32.0 °F 75% 30.25 in 10.0 mi ENE 17.3 mph 23.0 mph N/A   Clear
9:15 PM 39.2 °F 30.5 °F 32.0 °F 75% 30.26 in 10.0 mi ENE 16.1 mph - N/A   Clear
9:35 PM 39.2 °F 31.2 °F 32.0 °F 75% 30.26 in 10.0 mi ENE 13.8 mph 20.7 mph N/A   Clear
9:55 PM 39.2 °F 30.2 °F 32.0 °F 75% 30.25 in 10.0 mi ENE 17.3 mph - N/A   Clear
10:15 PM 39.2 °F 30.5 °F 32.0 °F 75% 30.26 in 10.0 mi East 16.1 mph 23.0 mph N/A   Clear
10:35 PM 39.2 °F 30.2 °F 32.0 °F 75% 30.26 in 10.0 mi East 17.3 mph 24.2 mph N/A   Partly Cloudy
10:55 PM 37.4 °F 27.5 °F 32.0 °F 81% 30.25 in 10.0 mi East 18.4 mph 25.3 mph N/A   Mostly Cloudy
11:15 PM 37.4 °F 27.8 °F 32.0 °F 81% 30.25 in 10.0 mi East 17.3 mph 24.2 mph N/A   Overcast
11:35 PM 37.4 °F 27.8 °F 32.0 °F 81% 30.24 in 10.0 mi East 17.3 mph 25.3 mph N/A   Light Drizzle
11:55 PM 37.4 °F 28.2 °F 32.0 °F 81% 30.25 in 10.0 mi East 16.1 mph - N/A   Overcast